Find Mengtian

NORAD ID: 54216 Int'l Des: 2022-143 Owner: CMSEO Country: CN operational
LEOCIRCULAR

Live-Position

3D-Globus wird geladen...

Über Mengtian

Beschreibung wird geladen...

Nächste Überflüge

Passes for default location (London). Set your location on the main map for personalized predictions.

Höhenverlauf

Loading altitude history...

Zweizeiliger Elementsatz

1 54216U 22143A 26104.84996935 .00016086 00000-0 17964-3 0 9997
2 54216 41.4685 347.8435 0005562 209.4927 150.5599 15.62394233283828
Epoch: 14. Apr. 2026 • Age: 10 hours

Aktueller Status

Höhe 379.5 km
Geschwindigkeit 7.69 km/s
Subsatellitenpunkt 26.00°N, 164.28°W
Startdatum 31. Okt. 2022
Alter 3.4 years
Typ other

Technische Details

Klassifizierung Payload
Masse 23000.00 kg
Trockenmasse 21500.00 kg
Gesamtmasse 23000.00 kg
Länge 17.90 m
Durchmesser 4.20 m
Spannweite 55.00 m
Form Step Cyl + 2 Pan
Hersteller CAST
Bus-Typ Tianhe
Phasenstatus Docked
Besitzer/Staat CMSEO/CN

Most Searched